Regional Weather Roundup
Issued by NWS

Home | Current Version | Previous Version | Text Only | Print | Product List | Glossary Off
Versions: 1 2 3 4 5 6 7 8 9 10 11 12 13 14 15 16 17 18 19 20 21 22 23 24 25 26 27 28 29 30 31 32 33 34 35 36 37 38 39 40 41 42 43 44 45 46 47 48 49 50

658
ASUS43 KIND 011559
RWRIN

WEATHER ROUNDUP FOR INDIANA
NATIONAL WEATHER SERVICE INDIANAPOLIS IN
1200 PM EDT SAT OCT 01 2016

NOTE: "FAIR" INDICATES FEW OR NO CLOUDS BELOW 12,000 FEET WITH NO
SIGNIFICANT WEATHER AND/OR OBSTRUCTIONS TO VISIBILITY.

* - STATION DOES NOT REPORT WEATHER SUCH AS PRECIPITATION OR FOG.

+ - STATION NOT QUALITY CONTROLLED BY THE NATIONAL WEATHER SERVICE.
    USE DATA WITH CAUTION...ESPECIALLY DEWPOINT AND RELATIVE
    HUMIDITY OBSERVATIONS.

INZ001>003-010>013-019-020-011700-
NORTHWEST INDIANA

CITY           SKY/WX    TMP DP  RH WIND       PRES   REMARKS
KNOX *+        CLOUDY    59  52  77 SE3       30.00F
MONTICELLO +   CLOUDY    58  54  86 S7        30.02S FOG
RENSSELAER +   CLOUDY    61  59  94 CALM      30.01F
VALPARAISO     LGT RAIN  61  57  88 E3        30.00F

$$

LMZ046-743>745-011700-
SOUTHERN LAKE MICHIGAN

STATION/POSITION TIME  TEMP    WIND        PRES    WAVE
                       AIR SEA DIR/SP/G            HT
                 (UTC) (F)     (DEG/KT/KT) (MB)    (FT)
BURNS HARBOR     1540   61      60/ 14/ 18 1016.3F
MICHIGAN CITY    1530   59      40/ 13/ 14   N/A
5NW MICH CITY    1550   61 64   60/ 12/ 14   N/A     4

$$

INZ004-005-014>016-021>024-011700-
NORTH CENTRAL INDIANA

CITY           SKY/WX    TMP DP  RH WIND       PRES   REMARKS
ELKHART        PTSUNNY   64  57  77 SE8       30.01S
GOSHEN         CLOUDY    62  54  74 S13       30.02S
SOUTH BEND     CLOUDY    62  59  90 SE7       30.01S THUNDER
WARSAW +       CLOUDY    59  54  82 S5        30.02F

$$

INZ006>009-017-018-025>027-011700-
NORTHEAST INDIANA

CITY           SKY/WX    TMP DP  RH WIND       PRES   REMARKS
ANGOLA *+        N/A     64  55  72 S6        30.03S
AUBURN +       CLOUDY    61  54  77 S3        30.05S
FORT WAYNE     LGT RAIN  58  55  90 S6        30.05S
KENDALLVILLE + CLOUDY    62  55  78 S8        30.04S

$$

INZ028-029-035-036-043>045-051>053-011700-
WEST CENTRAL INDIANA

CITY           SKY/WX    TMP DP  RH WIND       PRES   REMARKS
CRAWFORDSVL +  CLOUDY    57  57 100 SW6       30.04R
GREENCASTLE +  CLOUDY    59  59 100 CALM      30.04S
LAFAYETTE      CLOUDY    58  57  97 CALM      30.02S
TERRE HAUTE    CLOUDY    58  55  90 CALM      30.04R

$$

INZ030>032-037>040-046>048-054>057-064-065-011700-
CENTRAL INDIANA

CITY           SKY/WX    TMP DP  RH WIND       PRES   REMARKS
ANDERSON       PTSUNNY   59  55  88 CALM      30.04F
COLUMBUS       CLOUDY    57  55  94 S5        30.06S
FRANKFORT +    CLOUDY    62  55  78 SW5       30.05S
INDIANAPOLIS   PTSUNNY   58  54  86 S8        30.04S
-EAGLE CREEK   MOSUNNY   61  54  77 SE6       30.03F
KOKOMO *+      LGT RAIN  57  55  93 S7        30.04F
SHELBYVILLE    CLOUDY    60  52  74 VRB7      30.05R
ZIONSVILLE +   CLOUDY    59  53  80 SE5       30.04S

$$

INZ033-034-041-042-049-050-058-059-011700-
EAST CENTRAL INDIANA

CITY           SKY/WX    TMP DP  RH WIND       PRES   REMARKS
MUNCIE         CLOUDY    61  54  77 SW3       30.04S

$$

INZ060-061-067>069-081>083-085>088-011700-
SOUTHWEST INDIANA

CITY           SKY/WX    TMP DP  RH WIND       PRES   REMARKS
EVANSVILLE     CLOUDY    66  60  81 S9        30.03S
HUNTINGBURG *+   N/A     63  57  82 CALM      30.04S

$$

INZ062-063-066-070>080-084-089>092-011700-
SOUTH CENTRAL AND SOUTHEAST INDIANA

CITY           SKY/WX    TMP DP  RH WIND       PRES   REMARKS
BLOOMINGTON    CLOUDY    56  53  90 SE6       30.04S FOG
MADISON *+     CLOUDY    59  55  88 CALM      30.08R
SEYMOUR +      CLOUDY    57  57 100 CALM      30.06S FOG

$$





USA.gov is the U.S. government's official web portal to all federal, state and local government web resources and services.